Vertical_Velocity
-2 -2 -3 -2 -1 1 1 1 -1 -1 3 7 2 0 0 -2 0 0 1 3 4 -1
-1 -1 -0 -0 -1 2 2 5 4 -1 -3 -1 4 4 -1 -4 -1 -3 2 2 0 -3
1 -0 1 1 1 -1 -1 -2 0 1 1 -1 -0 0 -0 2 3 -3 5 1 -0 4
-2 1 -2 -2 -2 -2 0 -1 -1 -2 1 2 -1 2 0 2 3 -1 -1 1 0 4
1 1 2 0 -1 -0 1 2 0 3 2 3 2 1 -2 -2 -1 -2 2 2 3 4
1 -2 -1 -0 -1 -1 -2 2 3 -1 2 1 3 2 2 -3 -3 -2 -4 -2 -0 4
5 3 1 2 3 6 4 2 3 4 2 3 3 6 3 1 -2 -2 3 6 3 -1
-1 -4 -2 -1 0 0 -0 -3 -3 3 7 7 4 2 -2 -1 -1 3 7 5 3 1
2 4 2 2 -1 -2 1 -1 -2 2 -2 4 6 3 4 -5 2 6 3 2 8 0
-4 -1 -1 1 -1 -1 2 0 2 5 6 8 6 4 3 2 -2 -4 1 1 -3 1
-3 -2 -2 0 -0 0 1 1 3 4 5 1 3 1 -2 0 1 3 -1 -5 -3 -4
1 4 3 1 -1 1 -1 2 -2 -5 -4 -3 -0 2 -0 -5 -5 1 2 1 -1 -5
1 -1 1 -5 -0 2 1 4 3 1 -0 -3 -2 -0 0 -4 -5 -5 -4 7 0 5
-3 -0 -5 -3 -8 -7 -4 -3 1 4 3 1 -6 -0 4 -2 -4 -6 -6 -6 1 1
Height
5752 5748 5743 5739 5735 5730 5725 5721 5716 5710 5706 5703 5698 5693 5688 5684 5682 5677 5672 5668 5665 5659
5739 5734 5730 5725 5720 5715 5710 5705 5701 5696 5690 5686 5682 5678 5673 5669 5665 5661 5657 5652 5648 5643
5725 5720 5715 5709 5704 5699 5695 5690 5686 5683 5678 5672 5667 5662 5657 5654 5649 5644 5639 5635 5631 5627
5710 5705 5700 5695 5690 5685 5680 5675 5669 5665 5660 5656 5650 5644 5640 5636 5631 5627 5622 5618 5615 5611
5696 5691 5686 5680 5675 5669 5664 5659 5653 5648 5643 5638 5632 5625 5619 5615 5611 5606 5601 5596 5593 5591
5681 5675 5669 5664 5659 5653 5646 5640 5635 5628 5623 5618 5612 5606 5601 5595 5590 5583 5580 5575 5570 5569
5666 5660 5654 5648 5642 5635 5628 5621 5614 5609 5603 5598 5591 5585 5580 5574 5570 5564 5560 5557 5554 5550
5647 5640 5634 5627 5621 5615 5608 5602 5597 5592 5586 5579 5572 5565 5557 5551 5547 5544 5541 5539 5535 5531
5625 5620 5613 5607 5600 5593 5587 5581 5575 5569 5563 5558 5551 5543 5535 5528 5525 5523 5520 5517 5516 5512
5603 5596 5588 5581 5575 5570 5565 5559 5554 5549 5542 5536 5529 5522 5515 5510 5505 5501 5497 5495 5493 5494
5580 5573 5567 5560 5553 5547 5541 5535 5529 5525 5519 5514 5508 5503 5496 5491 5486 5483 5480 5475 5473 5470
5557 5552 5545 5538 5530 5524 5518 5514 5509 5504 5499 5494 5489 5483 5477 5470 5466 5463 5460 5457 5455 5449
5536 5529 5524 5517 5511 5503 5496 5492 5488 5483 5478 5473 5469 5463 5456 5447 5442 5441 5436 5435 5433 5429
5517 5510 5503 5498 5491 5485 5478 5472 5467 5462 5457 5452 5446 5438 5430 5421 5415 5410 5409 5408 5409 5408